Location: Domont
(49.0278°N, 2.3264°E)
Time: 17:11:03
(UTC+00:00)

NOAA 19 - Pass Details

Date: 02 July 2022
Orbit: 840 x 861 km, 99.1° (Epoch: 17 August)

Event Time Altitude Azimuth Distance (km) Brightness Sun altitude
Rises 20:47:38 0° 224° (SW) 3,419 8.3 -6.8°
Reaches altitude 10° 20:52:00 10° 257° (WSW) 2,485 8.1 -7.3°
Maximum altitude 20:53:43 11° 275° (W) 2,387 8.3 -7.5°
Drops below altitude 10° 20:55:26 10° 294° (WNW) 2,487 8.8 -7.6°
Sets 20:59:50 0° 327° (NNW) 3,424 10.7 -8.1°
